Weather in Izhevskoe

Russia / Ryazan Oblast     54°33′12″N   40°52′03″E
temp.,
°C
wind,
m/s
gust,
m/s
humid.,
%
clouds,
%
prec.,
mm/h
press.,
hPa
HPBL,
m
18 may, tue
tue1800:00+17ese4127837 0.0 1012179
03:00+16ese4136841 0.0 1011231
06:00+16ese4146810 0.0 1011235
09:00+22se5136120 0.0 1011435
12:00+26ese6105230 0.0 1011850
15:00+27ese69499 0.0 10101076
18:00+24ese714629 0.0 1009547
21:00+19ese515765 0.0 1009305
19 may, wed
wed1900:00+19ese616631 0.0 1008329
03:00+17ese513652 0.0 1009339
06:00+16se5147387 0.0 1009397
09:00+21se6106498 0.0 1009591
12:00+23se5758100 0.0 10091026
15:00+25se585664 0.0 10081258
18:00+24ese496721 0.0 1007446
21:00+20ese514777 0.1 1007416
20 may, thu
thu2000:00+15ese5148497 1.6 1009296
03:00+14e3792100 2.0 1007143
06:00+16sse369596 0.3 1008398
09:00+18sse6107899 0.3 10091003
12:00+20sse686269 0.3 10091592
15:00+20sse71063100 0.8 10091370
18:00+18sse6977100 0.4 1009814
21:00+14sse4109010 0.6 1009336
21 may, fri
fri2100:00+12s410965 0.0 1009258
03:00+13s4109095 0.1 1009415
06:00+13s7129049 0.2 1009669
09:00+13sw9127497 0.6 10111501
12:00+13sw81469100 0.3 10121485
15:00+12wsw8117993 0.6 10141162
18:00+12wsw6117995 0.0 1016990
21:00+10wsw3890100 0.0 1019194
22 may, sat
sat2200:00+9wsw3392100 0.0 101958
03:00+10ssw3388100 0.0 102168
06:00+11sse4586100 0.1 1021154
09:00+10ese2493100 2.6 1022234
12:00+10ene4693100 1.4 1022289
15:00+13ene4788100 1.4 1020457
18:00+11ne51097100 2.4 1019301
21:00+12ne51197100 2.9 1018351